Time,TemperatureF,DewpointF,PressureIn,WindDirection,WindDirectionDegrees,WindSpeedMPH,WindSpeedGustMPH,Humidity,HourlyPrecipIn,Conditions,Clouds,dailyrainin,SoftwareType,DateUTC
2013-03-15 00:08:00,43.6,41.0,30.08,WNW,288,0.0,0.0,90,0.00,,,0.00,weatherlink.com 1.10,2013-03-15 07:08:00,
2013-03-15 00:23:00,43.3,41.0,30.09,WNW,287,0.0,0.0,90,0.00,,,0.00,weatherlink.com 1.10,2013-03-15 07:23:00,
2013-03-15 00:38:00,43.2,41.0,30.08,WNW,288,0.0,0.0,92,0.00,,,0.00,weatherlink.com 1.10,2013-03-15 07:38:00,
2013-03-15 00:53:00,42.8,40.0,30.08,WNW,288,0.0,0.0,91,0.00,,,0.00,weatherlink.com 1.10,2013-03-15 07:53:00,
2013-03-15 01:08:00,42.5,40.0,30.09,WNW,288,0.0,0.0,92,0.00,,,0.00,weatherlink.com 1.10,2013-03-15 08:08:00,
2013-03-15 01:23:00,42.4,40.0,30.09,WNW,288,0.0,1.0,92,0.00,,,0.00,weatherlink.com 1.10,2013-03-15 08:23:00,
2013-03-15 01:38:00,42.4,40.0,30.09,WNW,288,0.0,1.0,92,0.00,,,0.00,weatherlink.com 1.10,2013-03-15 08:38:00,
2013-03-15 01:53:00,42.1,40.0,30.09,WNW,288,0.0,0.0,92,0.00,,,0.00,weatherlink.com 1.10,2013-03-15 08:53:00,
2013-03-15 02:08:00,41.9,40.0,30.08,WNW,288,0.0,1.0,93,0.00,,,0.00,weatherlink.com 1.10,2013-03-15 09:08:00,
2013-03-15 02:23:00,41.6,40.0,30.09,WNW,288,0.0,1.0,93,0.00,,,0.00,weatherlink.com 1.10,2013-03-15 09:23:00,
2013-03-15 02:38:00,41.3,40.0,30.08,WNW,288,0.0,0.0,93,0.00,,,0.00,weatherlink.com 1.10,2013-03-15 09:38:00,
2013-03-15 02:53:00,41.1,40.0,30.07,WNW,299,0.0,1.0,94,0.00,,,0.00,weatherlink.com 1.10,2013-03-15 09:53:00,
2013-03-15 03:08:00,41.1,40.0,30.08,WNW,299,0.0,0.0,94,0.00,,,0.00,weatherlink.com 1.10,2013-03-15 10:08:00,
2013-03-15 03:23:00,40.7,39.0,30.08,WNW,298,0.0,0.0,94,0.00,,,0.00,weatherlink.com 1.10,2013-03-15 10:23:00,
2013-03-15 03:38:00,40.5,39.0,30.08,WNW,298,0.0,0.0,94,0.00,,,0.00,weatherlink.com 1.10,2013-03-15 10:38:00,
2013-03-15 03:53:00,40.4,39.0,30.07,WNW,299,0.0,0.0,95,0.00,,,0.00,weatherlink.com 1.10,2013-03-15 10:53:00,
2013-03-15 04:09:00,41.5,41.0,30.06,WNW,298,0.0,1.0,96,0.00,,,0.00,weatherlink.com 1.10,2013-03-15 11:09:00,
2013-03-15 04:24:00,41.2,40.0,30.07,WNW,297,0.0,0.0,95,0.00,,,0.00,weatherlink.com 1.10,2013-03-15 11:24:00,
2013-03-15 04:39:00,42.1,41.0,30.07,West,278,0.0,1.0,96,0.00,,,0.00,weatherlink.com 1.10,2013-03-15 11:39:00,
2013-03-15 04:54:00,42.0,41.0,30.07,West,278,0.0,0.0,95,0.00,,,0.00,weatherlink.com 1.10,2013-03-15 11:54:00,
2013-03-15 05:09:00,41.7,40.0,30.07,West,278,0.0,1.0,94,0.00,,,0.00,weatherlink.com 1.10,2013-03-15 12:09:00,
2013-03-15 05:24:00,41.6,40.0,30.06,West,278,0.0,0.0,94,0.00,,,0.00,weatherlink.com 1.10,2013-03-15 12:24:00,
2013-03-15 05:39:00,41.4,40.0,30.06,West,278,0.0,0.0,95,0.00,,,0.00,weatherlink.com 1.10,2013-03-15 12:39:00,
2013-03-15 05:54:00,41.4,40.0,30.07,West,278,0.0,0.0,95,0.00,,,0.00,weatherlink.com 1.10,2013-03-15 12:54:00,
2013-03-15 06:09:00,41.5,40.0,30.07,West,278,0.0,0.0,95,0.00,,,0.00,weatherlink.com 1.10,2013-03-15 13:09:00,
2013-03-15 06:24:00,41.9,41.0,30.08,West,278,0.0,0.0,96,0.00,,,0.00,weatherlink.com 1.10,2013-03-15 13:24:00,
2013-03-15 06:39:00,42.1,41.0,30.07,West,278,0.0,0.0,96,0.00,,,0.00,weatherlink.com 1.10,2013-03-15 13:39:00,
2013-03-15 06:54:00,42.1,41.0,30.07,West,278,0.0,0.0,95,0.00,,,0.00,weatherlink.com 1.10,2013-03-15 13:54:00,
2013-03-15 07:09:00,42.0,41.0,30.08,West,278,0.0,0.0,95,0.00,,,0.00,weatherlink.com 1.10,2013-03-15 14:09:00,
2013-03-15 07:24:00,41.9,41.0,30.07,West,278,0.0,0.0,95,0.00,,,0.00,weatherlink.com 1.10,2013-03-15 14:24:00,
2013-03-15 07:39:00,42.1,41.0,30.07,West,278,0.0,0.0,95,0.00,,,0.00,weatherlink.com 1.10,2013-03-15 14:39:00,
2013-03-15 07:54:00,42.6,42.0,30.08,West,278,0.0,0.0,96,0.00,,,0.00,weatherlink.com 1.10,2013-03-15 14:54:00,
2013-03-15 08:09:00,43.3,42.0,30.07,West,276,0.0,0.0,96,0.00,,,0.00,weatherlink.com 1.10,2013-03-15 15:09:00,
2013-03-15 08:24:00,44.3,43.0,30.07,West,276,0.0,0.0,96,0.00,,,0.00,weatherlink.com 1.10,2013-03-15 15:24:00,
2013-03-15 08:39:00,45.6,45.0,30.08,West,277,0.0,0.0,96,0.00,,,0.00,weatherlink.com 1.10,2013-03-15 15:39:00,
2013-03-15 08:54:00,47.1,45.0,30.08,West,277,0.0,0.0,93,0.00,,,0.00,weatherlink.com 1.10,2013-03-15 15:54:00,
2013-03-15 09:09:00,48.8,45.0,30.08,NNE,13,0.0,1.0,88,0.00,,,0.00,weatherlink.com 1.10,2013-03-15 16:09:00,
2013-03-15 09:24:00,50.1,46.0,30.08,NNE,13,0.0,0.0,86,0.00,,,0.00,weatherlink.com 1.10,2013-03-15 16:24:00,
2013-03-15 09:39:00,51.3,47.0,30.09,South,187,0.0,1.0,84,0.00,,,0.00,weatherlink.com 1.10,2013-03-15 16:39:00,
2013-03-15 09:54:00,52.0,47.0,30.09,SSW,210,0.0,1.0,84,0.00,,,0.00,weatherlink.com 1.10,2013-03-15 16:54:00,
2013-03-15 10:09:00,53.1,47.0,30.09,ENE,60,0.0,1.0,79,0.00,,,0.00,weatherlink.com 1.10,2013-03-15 17:09:00,
2013-03-15 10:24:00,54.1,47.0,30.09,ENE,60,0.0,0.0,77,0.00,,,0.00,weatherlink.com 1.10,2013-03-15 17:24:00,
2013-03-15 10:39:00,55.7,48.0,30.09,East,80,0.0,2.0,76,0.00,,,0.00,weatherlink.com 1.10,2013-03-15 17:39:00,
2013-03-15 10:54:00,57.6,49.0,30.08,SW,221,0.0,1.0,72,0.00,,,0.00,weatherlink.com 1.10,2013-03-15 17:54:00,
2013-03-15 11:09:00,59.3,50.0,30.08,SW,215,0.0,1.0,70,0.00,,,0.00,weatherlink.com 1.10,2013-03-15 18:09:00,
2013-03-15 11:40:00,61.8,48.0,30.07,South,174,0.0,1.0,60,0.00,,,0.00,weatherlink.com 1.10,2013-03-15 18:40:00,
2013-03-15 11:55:00,63.8,49.0,30.07,SW,218,0.0,1.0,60,0.00,,,0.00,weatherlink.com 1.10,2013-03-15 18:55:00,
2013-03-15 12:10:00,65.6,50.0,30.07,SSW,200,0.0,1.0,57,0.00,,,0.00,weatherlink.com 1.10,2013-03-15 19:10:00,
2013-03-15 12:25:00,67.5,50.0,30.06,SSW,204,0.0,2.0,53,0.00,,,0.00,weatherlink.com 1.10,2013-03-15 19:25:00,
2013-03-15 12:40:00,69.1,50.0,30.05,SSW,207,0.0,2.0,51,0.00,,,0.00,weatherlink.com 1.10,2013-03-15 19:40:00,
2013-03-15 12:55:00,69.6,50.0,30.05,SW,222,1.0,2.0,50,0.00,,,0.00,weatherlink.com 1.10,2013-03-15 19:55:00,
2013-03-15 13:10:00,70.2,49.0,30.05,South,175,0.0,1.0,47,0.00,,,0.00,weatherlink.com 1.10,2013-03-15 20:10:00,
2013-03-15 13:25:00,71.0,50.0,30.04,South,184,0.0,1.0,47,0.00,,,0.00,weatherlink.com 1.10,2013-03-15 20:25:00,
2013-03-15 13:40:00,71.8,50.0,30.04,North,350,0.0,2.0,46,0.00,,,0.00,weatherlink.com 1.10,2013-03-15 20:40:00,
2013-03-15 13:55:00,73.3,46.0,30.04,North,4,2.0,4.0,38,0.00,,,0.00,weatherlink.com 1.10,2013-03-15 20:55:00,
2013-03-15 14:10:00,74.2,45.0,30.03,ENE,57,2.0,3.0,36,0.00,,,0.00,weatherlink.com 1.10,2013-03-15 21:10:00,
2013-03-15 14:25:00,74.4,45.0,30.03,ENE,72,1.0,5.0,35,0.00,,,0.00,weatherlink.com 1.10,2013-03-15 21:25:00,
2013-03-15 14:40:00,75.6,50.0,30.03,NNE,25,2.0,6.0,40,0.00,,,0.00,weatherlink.com 1.10,2013-03-15 21:40:00,
2013-03-15 14:55:00,74.6,52.0,30.03,NW,313,3.0,7.0,45,0.00,,,0.00,weatherlink.com 1.10,2013-03-15 21:55:00,
2013-03-15 15:10:00,73.5,49.0,30.03,NNE,29,1.0,9.0,42,0.00,,,0.00,weatherlink.com 1.10,2013-03-15 22:10:00,
2013-03-15 15:25:00,72.5,48.0,30.02,ESE,105,0.0,9.0,42,0.00,,,0.00,weatherlink.com 1.10,2013-03-15 22:25:00,
2013-03-15 15:40:00,71.5,49.0,30.01,NNE,27,5.0,9.0,45,0.00,,,0.00,weatherlink.com 1.10,2013-03-15 22:40:00,
2013-03-15 15:55:00,71.3,50.0,30.01,SE,136,1.0,7.0,47,0.00,,,0.00,weatherlink.com 1.10,2013-03-15 22:55:00,
2013-03-15 16:10:00,71.3,50.0,30.01,NE,53,0.0,6.0,48,0.00,,,0.00,weatherlink.com 1.10,2013-03-15 23:10:00,
2013-03-15 16:25:00,69.9,51.0,30.01,NNE,16,0.0,7.0,51,0.00,,,0.00,weatherlink.com 1.10,2013-03-15 23:25:00,
2013-03-15 16:40:00,67.4,50.0,30.02,NE,35,2.0,7.0,54,0.00,,,0.00,weatherlink.com 1.10,2013-03-15 23:40:00,
2013-03-15 16:56:00,65.8,50.0,30.01,ENE,72,3.0,4.0,58,0.00,,,0.00,weatherlink.com 1.10,2013-03-15 23:56:00,
2013-03-15 17:11:00,66.0,50.0,30.01,North,6,3.0,6.0,56,0.00,,,0.00,weatherlink.com 1.10,2013-03-16 00:11:00,
2013-03-15 17:26:00,65.5,50.0,30.00,North,3,0.0,7.0,57,0.00,,,0.00,weatherlink.com 1.10,2013-03-16 00:26:00,
2013-03-15 17:41:00,64.6,50.0,30.00,ENE,75,0.0,7.0,59,0.00,,,0.00,weatherlink.com 1.10,2013-03-16 00:41:00,
2013-03-15 17:56:00,63.0,50.0,30.00,East,96,0.0,5.0,63,0.00,,,0.00,weatherlink.com 1.10,2013-03-16 00:56:00,
2013-03-15 18:11:00,62.0,50.0,29.99,North,352,3.0,4.0,65,0.00,,,0.00,weatherlink.com 1.10,2013-03-16 01:11:00,
2013-03-15 18:26:00,62.1,50.0,29.99,NW,321,0.0,5.0,64,0.00,,,0.00,weatherlink.com 1.10,2013-03-16 01:26:00,
2013-03-15 18:41:00,60.9,49.0,29.99,SE,125,2.0,6.0,66,0.00,,,0.00,weatherlink.com 1.10,2013-03-16 01:41:00,
2013-03-15 18:56:00,61.1,50.0,29.99,East,100,0.0,5.0,66,0.00,,,0.00,weatherlink.com 1.10,2013-03-16 01:56:00,
2013-03-15 19:56:00,55.7,49.0,30.00,SW,214,0.0,0.0,77,0.00,,,0.00,weatherlink.com 1.10,2013-03-16 02:56:00,
2013-03-15 20:26:00,52.8,48.0,29.99,SW,214,0.0,0.0,83,0.00,,,0.00,weatherlink.com 1.10,2013-03-16 03:26:00,
2013-03-15 20:56:00,50.5,47.0,30.00,SSE,156,0.0,0.0,87,0.00,,,0.00,weatherlink.com 1.10,2013-03-16 03:56:00,
2013-03-15 21:12:00,54.8,48.0,30.01,SE,139,0.0,4.0,78,0.00,,,0.00,weatherlink.com 1.10,2013-03-16 04:12:00,
2013-03-15 21:41:00,55.2,48.0,30.02,SE,124,0.0,2.0,76,0.00,,,0.00,weatherlink.com 1.10,2013-03-16 04:41:00,
2013-03-15 22:11:00,54.6,48.0,30.03,SSE,158,0.0,4.0,77,0.00,,,0.00,weatherlink.com 1.10,2013-03-16 05:11:00,
2013-03-15 23:26:00,52.5,47.0,30.03,NNE,23,2.0,7.0,80,0.00,,,0.00,weatherlink.com 1.10,2013-03-16 06:26:00,
2013-03-15 23:41:00,52.0,46.0,30.03,SSE,158,1.0,3.0,81,0.00,,,0.00,weatherlink.com 1.10,2013-03-16 06:41:00,
2013-03-15 23:56:00,51.5,47.0,30.02,SE,136,0.0,3.0,83,0.00,,,0.00,weatherlink.com 1.10,2013-03-16 06:56:00,